Weather Service Report


323 
ASUS43 KIND 060809
RWRIN 

WEATHER ROUNDUP FOR INDIANA
NATIONAL WEATHER SERVICE INDIANAPOLIS IN
300 AM EST TUE DEC 06 2016

NOTE: "FAIR" INDICATES FEW OR NO CLOUDS BELOW 12,000 FEET WITH NO
SIGNIFICANT WEATHER AND/OR OBSTRUCTIONS TO VISIBILITY.

* - STATION DOES NOT REPORT WEATHER SUCH AS PRECIPITATION OR FOG.

+ - STATION NOT QUALITY CONTROLLED BY THE NATIONAL WEATHER SERVICE.
    USE DATA WITH CAUTION...ESPECIALLY DEWPOINT AND RELATIVE
    HUMIDITY OBSERVATIONS.

INZ001>003-010>013-019-020-060900-
NORTHWEST INDIANA
  
CITY           SKY/WX    TMP DP  RH WIND       PRES   REMARKS
GARY /AIRPORT/ MOCLDY    33  32  96 CALM      29.89R FOG              
KNOX *+        CLOUDY    32  19  59 E7        29.87F WCI  26          
LA PORTE +     PTCLDY   N/A N/A N/A E7        29.88F HAZE             
MICHIGAN CITY+ MOCLDY    32  32 100 SE7       29.88F FOG     WCI  26  
MONTICELLO +   CLOUDY    32  28  86 E7        29.85F WCI  26          
RENSSELAER +     N/A     32  32 100 E9        29.86F FOG     WCI  24  
VALPARAISO     PTCLDY    30  27  88 E9        29.88F FOG     WCI  22  

$$

LMZ046-743>745-060900-
SOUTHERN LAKE MICHIGAN
  
STATION/POSITION TIME  TEMP    WIND        PRES    WAVE
                       AIR SEA DIR/SP/G            HT
                 (UTC) (F)     (DEG/KT/KT) (MB)    (FT)
BURNS HARBOR     0740   34     100/  9/ 14 1012.2F

$$

INZ004-005-014>016-021>024-060900-
NORTH CENTRAL INDIANA
  
CITY           SKY/WX    TMP DP  RH WIND       PRES   REMARKS
GOSHEN         PTCLDY    29  25  85 E7        29.90F FOG     WCI  22  
LOGANSPORT +   PTCLDY    32  30  93 E9        29.87F FOG     WCI  24  
PERU/GRISSOM   CLOUDY    32  31  97 E9        29.84F WCI  24          
ROCHESTER +    PTCLDY    34  32  93 E9        29.88F FOG     WCI  26  
SOUTH BEND     CLOUDY    30  28  92 E8        29.90F WCI  22          
WARSAW +       MOCLDY    32  28  86 E9        29.90S WCI  24          

$$

INZ006>009-017-018-025>027-060900-
NORTHEAST INDIANA
  
CITY           SKY/WX    TMP DP  RH WIND       PRES   REMARKS
ANGOLA *+      CLEAR     30  21  69 E10       29.91F WCI  21          
AUBURN +       PTCLDY    30  28  93 E6        29.93S WCI  24          
FORT WAYNE     CLOUDY    27  24  89 NE9       29.90F WCI  18          
HUNTINGTON +   CLEAR     30  29  96 E6        29.89S WCI  24          
KENDALLVILLE + PTCLDY    31  28  92 E8        29.91F WCI  23          

$$

INZ028-029-035-036-043>045-051>053-060900-
WEST CENTRAL INDIANA
  
CITY           SKY/WX    TMP DP  RH WIND       PRES   REMARKS
CRAWFORDSVL +  PTCLDY    34  34 100 E7        29.82F WCI  28          
GREENCASTLE +  CLOUDY    36  34  93 E6        29.83R                  
LAFAYETTE      CLOUDY    32  31  96 E9        29.84F WCI  24          
TERRE HAUTE    CLOUDY    37  33  85 NE7       29.80F                  

$$

INZ030>032-037>040-046>048-054>057-064-065-060900-
CENTRAL INDIANA
  
CITY           SKY/WX    TMP DP  RH WIND       PRES   REMARKS
CP ATTERBURY + CLOUDY    37  34  87 CALM      29.83S                  
FRANKFORT +    CLOUDY    36  33  90 E9        29.86F                  
GREENWOOD *+   CLOUDY    37  33  87 E8        29.84R                  
INDIANAPOLIS   CLOUDY    37  32  82 E7        29.85R                  
-EAGLE CREEK   PTCLDY    37  31  78 E7        29.84S                  
KOKOMO +       CLOUDY    32  31  96 E10       29.87F WCI  24          
MARION +       PTCLDY    31  30  95 E7        29.88F WCI  24          
MT COMFORT *+  CLOUDY    34  32  93 E6        29.85R WCI  29          
SHELBYVILLE    CLOUDY    37  32  82 E12       29.82S                  
ZIONSVILLE +   CLOUDY    33  31  92 E7        29.86R WCI  27          

$$

INZ033-034-041-042-049-050-058-059-060900-
EAST CENTRAL INDIANA
  
CITY           SKY/WX    TMP DP  RH WIND       PRES   REMARKS
MUNCIE         CLOUDY    34  30  85 E10       29.86F WCI  26          

$$

INZ060-061-067>069-081>083-085>088-060900-
SOUTHWEST INDIANA
  
CITY           SKY/WX    TMP DP  RH WIND       PRES   REMARKS
EVANSVILLE     RAIN      42  39  89 NE9       29.74F FOG              
HUNTINGBURG *+ RAIN      41  39  93 NE8       29.76F FOG              
WASHINGTON +   DRIZZLE   41  38  89 E9        29.77F                  

$$

INZ062-063-066-070>080-084-089>092-060900-
SOUTH CENTRAL AND SOUTHEAST INDIANA
  
CITY           SKY/WX    TMP DP  RH WIND       PRES   REMARKS
BLOOMINGTON    CLOUDY    40  33  76 E9        29.79F                  
MADISON *+     CLOUDY    41  34  75 E9        29.82S                  
NORTH VERNON + CLOUDY    41  39  93 NE9       29.81S                  
SEYMOUR +      CLOUDY    43  36  75 E5        29.80F                  

$$

  

Return to Home page


Western Regional Climate Center, wrcc@dri.edu